sat.trackr.live / text

‹ back to catalog

STARLINK-31100

NORAD 58714 · 2024-002K

PAYLOAD ACTIVE UNKNOWN

§ Identity

Operator
Country
US
Launch date
2024-01-03
Launch site
AFWTR
Launch vehicle
Mass (kg)
RCS (m²)

Purposes: comms

External: N2YO · Heavens-Above · Gunter

§ Orbital elements

Epoch: 2026-09-20T16:32:30.178752Z

Period
93.85 min
Inclination
53.1608°
Eccentricity
0.0000913
Mean motion
15.34391738 rev/d
Perigee alt
462.1 km
Apogee alt
463.4 km
Semi-major
6,840.9 km
B*
1.8755e-5
RAAN
42.5558°
Arg perigee
75.9571°
Mean anomaly
284.1533°
Rev number
15,189

§ Raw data

STARLINK-311001 58714U 24002K   26263.68923818  .00000258  00000+0  18755-4 0  99912 58714  53.1608  42.5558 0000913  75.9571 284.1533 15.34391738151890

JSON: /api/v1/satellites/58714 · /tle

For live sub-satellite position, see the globe view (requires WebGL).

§ Visibility from observer

Set your observer location to see the next 7 days of passes ≥ 10°. The values pass through the URL so the page stays shareable.

No JS? Fill the form by hand. The geolocation button needs JavaScript.